Accueil
METAR-TAF:

METAR-TAF

Aéroports :

Berlin, New Hampshire, États-Unis

latitude: 44-34-34N, longitude: 071-10-43W, altitude: 353 m

Observation

Le bulletin a été fait il y a 18 minutes, à 10:52 UTC
Vent 6 kt de direction variable avec des rafales jusqu'à 15 kt
Température 14°C
Humidité 67%
Pression 1014 hPa
Visibilité: 16.1 km
Nuages fragmentés à une hauteur de 4100 ft
Nuages fragmentés à une hauteur de 5000 ft

METAR: KBML 221052Z AUTO VRB06G15KT 10SM BKN041 BKN050 14/08 A2994 RMK AO2 SLP141 T01440083

Heure: 07:10 (11:10 UTC)


TAF: absent

Observations et prévisions météorologiques de plus de 4000 aéroports (messages METAR et TAF).

Les stations disponibles sont représentées par des disques jaunes et rouges sur la carte.

Passer la souris dessus pour voir le nom de la station.

Cliquer dessus pour voir les observations et prévisions météorologiques.

Pour changer de carte: cliquez sur les boutons verts avec une croix noire pour zoomer, sur le bouton vert avec un tiret pour effectuer un zoom arrière, ou sur les flèches vertes pour les cartes adjacentes.


METAR-TAF: